Location: ??
(35.5253°N, 139.7078°E)
Time: 22:14:12
(UTC+00:00)

Daily predictions for brighter satellites

Satellite Brightness Start Highest point End
(mag) Time Altitude Azimuth Time Altitude Azimuth Time Altitude Azimuth
CZ-3 R/B 4.4 15:31:58 10° W 16:43:38 56° SE 16:52:53 10° ESE
Cosmos 1980 Rocket 4.0 18:46:38 23° SSE 18:46:38 23° SSE 18:48:37 10° SSE
Cosmos 2369 4.3 18:56:38 55° E 18:56:38 55° E 19:01:36 10° SE
Cosmos 1937 Rocket 4.3 19:12:25 40° NNE 19:13:31 46° ENE 19:18:26 10° SE
Cosmos 2333 Rocket 4.0 19:18:05 12° N 19:22:30 27° ENE 19:27:17 10° ESE
Aureole 1 Rocket 4.2 19:23:53 52° NW 19:25:46 71° WSW 19:33:04 10° S
CZ-3 Stage 3 4.2 19:26:49 37° WSW 19:32:07 64° S 20:11:30 10° ESE
Cosmos 2322 Rocket 4.0 19:34:53 10° N 19:39:43 28° ENE 19:44:30 10° ESE
USA 59 Rocket 0.0 19:39:45 77° WSW 19:39:50 77° WSW 19:45:27 10° SSE
NOSS 2-1 (D) 3.4 19:40:34 80° WNW 19:40:46 84° WSW 19:46:17 10° SSE
COSMOS 2455 2.8 19:40:12 53° WNW 19:41:23 64° WSW 19:47:17 10° SSE
Cosmos 2026 Rocket 3.8 19:43:09 10° S 19:49:12 88° W 19:55:19 10° N
SKYMED 2 4.0 19:45:30 10° SSE 19:49:45 60° ENE 19:53:13 15° N
Cosmos 2058 Rocket 4.1 19:48:09 10° N 19:52:25 46° E 19:56:36 10° SSE
SWAS 4.4 19:53:35 56° SW 19:53:35 56° SW 19:57:11 10° S
NOSS 2-1 (E) 3.5 19:54:00 54° NW 19:54:56 78° WSW 20:00:25 10° SSE
[s.n.66875] 4.2 19:55:08 13° SSE 19:56:05 15° SE 19:57:42 10° ESE
[s.n.66873] 4.2 19:55:49 13° S 19:56:48 15° SE 19:58:26 10° ESE
[s.n.66876] 4.2 19:56:18 13° S 19:57:17 15° SE 19:58:56 10° ESE
[s.n.66874] 4.2 19:57:04 13° S 19:58:07 16° SE 19:59:47 10° ESE
[s.n.66872] 4.2 19:57:51 13° S 19:58:56 16° SE 20:00:39 10° E
[s.n.66871] 4.2 19:58:23 13° S 19:59:29 16° SE 20:01:13 10° E
[s.n.66870] 4.2 19:59:12 13° S 20:00:20 17° SE 20:02:06 10° E
[s.n.66869] 4.1 19:59:59 13° S 20:01:10 17° SE 20:02:57 10° E
[s.n.66868] 4.1 20:00:36 13° S 20:01:47 17° SE 20:03:36 10° E
Meteor 2-3 Rocket 3.9 19:56:44 10° SSW 20:02:16 49° WNW 20:07:46 10° N
[s.n.66867] 4.1 20:01:22 13° S 20:02:37 17° SE 20:04:27 10° E
COSMOS 2406 4.5 20:04:52 22° NNW 20:04:52 22° NNW 20:07:43 10° N
Cosmos 1606 Rocket 4.2 20:03:58 36° WSW 20:03:58 36° WSW 20:07:22 10° SSW
[s.n.66866] 4.1 20:02:05 13° S 20:03:22 18° SE 20:05:14 10° E
Cosmos 2237 4.3 20:01:01 33° NW 20:03:22 54° WSW 20:08:52 10° S
[s.n.66865] 4.1 20:02:38 13° S 20:03:56 18° SE 20:05:49 10° E
NOAA 12 4.0 19:59:00 10° N 20:04:14 69° WNW 20:09:25 10° SSW
Cosmos 1484 Rocket 4.0 20:01:18 10° NNE 20:04:27 36° E 20:07:33 10° SSE
[s.n.66860] 4.1 20:03:17 13° S 20:04:37 18° SE 20:06:32 10° E
[s.n.66864] 4.1 20:03:55 13° S 20:05:16 19° SE 20:07:11 10° E
ATLAS 2AS CENTAUR R/B 3.3 19:58:26 10° SSW 20:05:25 60° ESE 20:12:14 10° NE
[s.n.66863] 4.1 20:04:29 13° S 20:05:53 19° SE 20:07:49 10° E
[s.n.66861] 4.0 20:05:19 13° S 20:06:43 19° SE 20:08:41 10° E
ISS -0.4 20:05:35 10° SSE 20:07:12 13° SE 20:08:51 10° E
[s.n.66862] 4.0 20:05:56 13° S 20:07:23 20° SE 20:09:23 10° E
[s.n.66859] 4.0 20:06:38 13° S 20:08:06 20° SE 20:10:07 10° E
[s.n.66858] 4.0 20:07:16 13° S 20:08:48 20° SE 20:10:50 10° E
SL-16 R/B 2.1 20:04:19 16° NNW 20:08:57 89° ENE 20:14:37 10° SSE
[s.n.66857] 3.9 20:07:51 13° S 20:09:24 20° SE 20:11:26 10° E
[s.n.66856] 3.9 20:08:24 13° S 20:09:58 21° SE 20:12:01 10° E
[s.n.66855] 3.9 20:09:04 13° S 20:10:40 21° SE 20:12:45 10° E
Tiangong -0.9 20:10:48 30° SW 20:10:52 30° SSW 20:13:44 10° SSE
[s.n.66854] 3.9 20:09:38 13° S 20:11:16 21° SE 20:13:21 10° E
Helios 1A Rocket 3.1 20:08:04 10° SSE 20:11:18 51° ENE 20:14:31 10° N
Centaur D-1AR AC-48 4.4 19:56:27 12° WSW 20:11:39 32° SSW 20:16:26 10° SE
[s.n.66853] 3.8 20:10:21 13° SSW 20:12:01 22° SE 20:14:07 10° E
Meteor 1-26 Rocket 4.3 20:06:57 10° N 20:12:34 80° E 20:18:21 10° S
NOSS 2-1 (C) 4.1 20:11:33 35° W 20:12:47 43° WSW 20:18:04 10° S
[s.n.66852] 3.8 20:11:06 13° SSW 20:12:47 22° SE 20:14:55 10° E
[s.n.66851] 3.8 20:11:37 13° SSW 20:13:20 22° SE 20:15:27 10° E
[s.n.66850] 3.8 20:12:08 12° SSW 20:13:53 23° SE 20:16:02 10° E
[s.n.66849] 3.7 20:12:51 12° SSW 20:14:38 23° SE 20:16:47 10° E
[s.n.66848] 3.7 20:13:22 12° SSW 20:15:10 23° SE 20:17:20 10° E
Cosmos 405 Rocket 2.4 20:13:46 10° S 20:16:59 71° E 20:20:14 10° NNE
YAOGAN 20A 4.5 20:11:56 10° SW 20:17:23 79° WNW 20:23:16 10° NNE
Cosmos 1758 Rocket 4.1 20:13:12 10° S 20:17:33 60° E 20:21:52 10° NNE
Cosmos 1092 Rocket 4.0 20:12:16 10° SSW 20:18:26 58° W 20:24:35 10° N
EPKM 4.1 20:17:42 11° SW 20:19:20 14° SSW 20:20:48 10° SSE
YAOGAN 20B 4.5 20:13:58 10° SW 20:19:25 81° WNW 20:25:19 10° NNE
CZ-3 R/B 4.0 20:12:23 17° W 20:22:26 28° SW 20:29:07 10° S
OAO 2 Rocket 3.5 20:19:23 20° WSW 20:22:58 75° S 20:28:05 10° E
RUBIN 8/PSLV 4.4 20:19:07 10° N 20:23:23 69° WNW 20:27:35 10° SSW
Centaur D AC-28 4.5 20:21:45 13° WSW 20:25:21 16° SW 20:28:35 10° S
Cosmos 1726 Rocket 4.3 20:26:19 25° WNW 20:27:05 27° W 20:30:35 10° SSW
NOSS 3-1 (A) 4.4 20:20:03 10° NNW 20:27:45 78° ENE 20:37:04 10° SE
Okean 1 2.9 20:28:14 10° NNW 20:31:47 70° W 20:35:18 10° S
SL-4 R/B 3.8 20:31:38 10° N 20:33:32 15° NNE 20:35:24 10° ENE
Cosmos 2278 3.7 20:28:14 10° NNW 20:33:47 64° WSW 20:39:19 10° S
SL-08 ROCKET BODY 4.3 20:29:22 10° S 20:35:14 89° W 20:41:06 10° N
COSMO-SKYMED 1 2.5 20:31:41 10° S 20:35:42 57° W 20:39:46 10° NNW
Cosmos-2242 3.1 20:34:24 10° NNW 20:38:28 50° W 20:42:30 10° SSW
Cosmos 1626 Rocket 3.6 20:35:19 10° SSW 20:39:40 60° W 20:44:01 10° N
OAO 3 Copernicus 4.3 20:37:48 16° W 20:41:49 86° S 20:46:50 10° E
OAO 3 Rocket 3.3 20:37:51 11° WSW 20:42:14 70° SSE 20:46:56 10° E
Centaur AC-119 4.3 20:39:05 10° WSW 20:43:31 29° S 20:47:42 10° ESE
Cosmos 2266 Rocket 4.4 20:41:46 10° S 20:48:06 70° E 20:54:24 10° NNE
IGS 5A 3.3 20:46:23 10° N 20:50:20 59° WNW 20:54:16 10° SSW
ATLAS CENTAUR Rocket 4.2 20:52:37 10° WSW 20:57:49 56° S 21:23:21 10° E
Cosmos 2360 Rocket 2.2 20:53:43 10° NNW 20:59:18 70° WSW 21:04:51 10° S
Cosmos 2333 Rocket 2.8 21:01:33 10° NW 21:06:49 38° WSW 21:12:02 10° S
ARIANE 5 R/B 2.9 21:06:27 10° NNE 21:11:41 73° ESE 21:16:52 10° S
Cosmos 2219 Rocket 2.2 21:10:03 10° NNW 21:15:43 88° WSW 21:21:19 10° SSE
